Location: Church Tower
(37.7144°N, 119.6316°W)
Time: 19:49:49
(UTC+00:00)

Cosmos 2292 Rocket - Pass Details

Date: 15 November 2025
Orbit: 369 x 1244 km, 83.0° (Epoch: 08 December)

Event Time Altitude Azimuth Distance (km) Brightness Sun altitude
Exits shadow 12:40:59 46° 321° (NW) 1,073 4.4 -23.3°
Drops below altitude 10° 12:45:47 10° 359° (N) 2,658 6.7 -22.4°
Sets 12:48:41 0° 3° (N) 3,750 7.5 -21.8°
